[[{"header":{"parameterUnit":"m.s-1","parameterCategory":1,"la1":30.2991,"la2":30.254,"lo1":-89.0895,"lo2":-89.0444,"dy":0.0017,"dx":0.0017,"nx":28,"ny":28,"refTime":"2025-03-15T21:00:00:Z","depth":0,"parameterNumber":2,"parameterNumberName":"U-component_of_WINDS"},"data":[0,0,0,0,0,0,0,0,0,0,0,0,0,0,0,0,0,0,0,0,0,0,0,0,0,0,0,0,0,0,0,0,0,0,0,0,0,0,0,0,0,0,0,0,0,0,0,0,0,0,0,0,0,0,0,0,0,0,3.9295,3.9296,0,3.9429,3.943,3.9432,3.9405,3.9402,3.94,3.9397,3.9536,3.9542,3.9548,0,0,0,0,0,0,0,0,0,0,0,0,0,3.9018,3.9023,3.9294,3.9296,3.9298,3.9428,3.943,3.9432,3.9405,3.9402,3.9399,3.9396,3.9534,3.9541,3.9548,0,0,0,0,0,0,0,0,0,0,0,0,0,3.9144,3.9025,3.9294,3.93,3.9302,3.9428,3.943,3.9433,3.9406,3.9402,3.9398,3.9395,3.9532,3.954,3.9549,3.9678,0,0,3.9576,3.958,0,0,0,0,0,0,0,0,3.9136,3.9154,3.9298,3.93,3.9302,3.9396,3.9383,3.9515,3.9407,3.9366,3.9397,3.9393,3.9492,3.9504,3.9538,3.9685,3.9691,3.9577,3.9583,3.9587,3.9589,0,0,0,0,0,0,0,3.9128,3.9148,3.9348,3.93,3.9303,3.9297,3.9311,3.9408,3.9448,3.937,3.9368,3.9384,3.9493,3.9529,3.9541,3.9693,3.9577,3.9585,3.9591,3.9594,3.9955,3.9959,0,0,0,0,0,0,3.9117,3.9141,3.9343,3.9352,3.9209,3.9305,3.932,3.937,3.9447,3.9456,3.9387,3.9382,3.9516,3.953,3.9545,3.9703,3.9586,3.9595,3.96,3.9951,3.9956,3.9961,0,0,0,0,0,0,3.9111,3.9135,3.9338,3.9246,3.9271,3.9314,3.9369,3.9374,3.941,3.9461,3.9468,3.9416,3.9513,3.9533,3.9646,3.9708,3.9599,3.9607,3.9946,3.9953,3.9958,4.0019,0,0,0,0,0,0,3.9103,3.9133,3.9182,3.9247,3.9276,3.9435,3.9373,3.938,3.9426,3.9421,3.949,3.9498,3.9512,3.9633,3.9655,3.9718,3.9614,3.9941,3.9949,3.9956,4.0012,4.0027,4.004,0,0,0,0,0,3.9093,3.9193,3.9184,3.9209,3.9338,3.9439,3.9456,3.9469,3.9431,3.9481,3.9513,3.9496,3.9697,3.9645,3.9669,3.9736,3.9937,3.9947,3.9956,4.0006,4.0024,4.0039,0,0,0,0,0,0,3.9133,3.9202,3.9193,3.9316,3.9372,3.9434,3.9497,3.9488,3.9556,3.9548,3.9563,3.9579,3.9695,3.9727,3.9666,3.9867,3.9812,3.9827,3.9841,3.9859,3.9873,3.9863,3.9622,0,0,0,0,0,3.9157,3.9233,3.9288,3.9392,3.9421,3.9455,3.9499,3.9505,3.9563,3.9587,3.9628,3.9686,3.9762,3.9812,3.9885,4.0017,4.0032,4.0075,4.0089,4.01,4.0113,4.0187,4.0207,3.9992,3.9992,3.9992,0,0,3.9206,3.9252,3.9299,3.9402,3.9445,3.9525,3.9474,3.956,3.9619,3.96,3.9709,3.9742,3.9808,3.9931,3.9987,3.9961,4.0176,4.0112,4.0121,4.0128,4.0199,4.0219,4.0237,3.9998,3.9997,3.9996,0,0,3.9335,3.9378,3.947,3.9515,3.9583,3.9605,3.9627,3.9692,3.9712,3.9823,3.9811,3.9882,4.0013,4.0061,4.0103,4.0254,4.0241,4.0277,4.035,4.0422,4.0439,4.0454,4.051,4.0529,4.029,4.029,4.029,0,3.9388,3.9506,3.9519,3.9606,3.9653,3.9639,3.9734,3.9777,3.9865,3.9898,3.9868,4.0034,4.0077,4.0213,4.025,4.0283,4.0311,4.0269,4.0435,4.0451,4.0465,4.0518,4.0539,4.0294,4.0294,4.0293,4.0293,0,3.9568,3.965,3.9717,3.9803,3.9857,3.9947,3.9975,4.0028,4.003,4.0056,4.017,4.0222,4.0306,4.0339,4.0341,4.0476,4.0458,4.0432,4.0377,4.049,4.054,4.056,4.03,4.0299,4.0297,4.0296,0,0,3.9725,3.9819,3.9843,3.9883,3.9957,4.0022,4.0113,4.0196,4.0242,4.0304,4.0382,4.0494,4.0471,4.0518,4.0526,4.059,4.0709,4.0556,4.0558,4.0584,4.0862,4.0882,4.0906,4.0701,4.0704,4.0708,4.0857,0,3.9863,4.0023,4.0038,4.0182,4.026,4.025,4.0329,4.0384,4.0412,4.0482,4.0513,4.0593,4.0555,4.0584,4.0646,4.0681,4.0765,4.067,4.0774,4.0778,4.0759,4.0932,4.0953,4.1091,4.0877,4.088,4.0883,0,4.0044,4.0112,4.0264,4.033,4.0363,4.0434,4.0513,4.058,4.0643,4.0659,4.0713,4.0713,4.0809,4.0751,4.0884,4.0819,4.0863,4.0887,4.0893,4.0903,4.0837,4.0948,4.1136,4.1157,4.0914,4.0911,4.0909,0,4.0146,4.0275,4.0383,4.0417,4.0496,4.0547,4.0583,4.0642,4.0692,4.0761,4.0794,4.0873,4.0917,4.0979,4.1001,4.0956,4.1134,4.1077,4.1151,4.1151,4.1189,4.1186,4.1387,4.1216,4.1215,4.1215,4.1215,0,4.0298,4.0392,4.043,4.0497,4.0602,4.062,4.0724,4.0757,4.0811,4.0885,4.0881,4.095,4.0975,4.105,4.1068,4.1177,4.1196,4.1213,4.1217,4.1214,4.1212,4.1243,4.1234,4.1221,4.1219,4.1218,4.1217,0,4.0429,4.0458,4.0576,4.0642,4.0661,4.0736,4.0793,4.0858,4.0885,4.0979,4.1002,4.1044,4.1132,4.1161,4.1267,4.1279,4.1406,4.1401,4.1385,4.1386,4.1459,4.1452,4.1687,4.172,4.1526,4.1528,4.1529,0,4.0524,4.0596,4.0671,4.072,4.0758,4.0837,4.0888,4.0909,4.0962,4.1041,4.1098,4.1184,4.1255,4.1396,4.1437,4.1519,4.1517,4.1594,4.1529,4.1524,4.152,4.1515,4.1523,4.1606,4.1608,4.1609,4.1611,0,4.0691,4.0703,4.0776,4.0856,4.0917,4.0981,4.1042,4.1083,4.1113,4.1174,4.1264,4.1319,4.1428,4.1515,4.1599,4.1636,4.163,4.1631,4.1653,4.165,4.1638,4.1647,4.1419,4.1625,4.1624,4.1623,4.1622,4.1621,4.0808,4.0873,4.0936,4.1018,4.1067,4.1125,4.119,4.1226,4.1301,4.1391,4.1399,4.1497,4.1561,4.1673,4.1715,4.1793,4.1771,4.1802,4.181,4.1818,4.1824,4.1626,4.1808,4.1808,4.1807,4.1807,4.1807,0,4.0976,4.1017,4.1093,4.1179,4.1245,4.1233,4.1301,4.1357,4.1443,4.1503,4.1573,4.1677,4.1763,4.1811,4.1897,4.195,4.1949,4.1972,4.1969,4.1978,4.1838,4.1811,4.1971,4.1971,4.1971,4.1971,4.1971,4.1971,4.1071,4.118,4.12,4.1334,4.1374,4.1469,4.1509,4.1564,4.1612,4.1729,4.18,4.1831,4.1887,4.1977,4.2056,4.2068,4.21,4.2126,4.2136,4.2004,4.1987,4.1971,4.1946,4.2132,4.2132,4.227,4.2271,4.2272]},{"header":{"parameterUnit":"m.s-1","parameterCategory":1,"la1":30.2991,"la2":30.254,"lo1":-89.0895,"lo2":-89.0444,"dy":0.0017,"dx":0.0017,"nx":28,"ny":28,"refTime":"2025-03-15T21:00:00:Z","depth":0,"parameterNumber":3,"parameterNumberName":"V-component_of_WINDS"},"data":[0,0,0,0,0,0,0,0,0,0,0,0,0,0,0,0,0,0,0,0,0,0,0,0,0,0,0,0,0,0,0,0,0,0,0,0,0,0,0,0,0,0,0,0,0,0,0,0,0,0,0,0,0,0,0,0,0,0,-5.9429,-5.9431,0,-5.9664,-5.9667,-5.9669,-5.9653,-5.9649,-5.9646,-5.9642,-5.9882,-5.9892,-5.9901,0,0,0,0,0,0,0,0,0,0,0,0,0,-5.8967,-5.8975,-5.9429,-5.9432,-5.9435,-5.9663,-5.9667,-5.967,-5.9653,-5.9649,-5.9645,-5.9641,-5.9879,-5.989,-5.9902,0,0,0,0,0,0,0,0,0,0,0,0,0,-5.9181,-5.8978,-5.9428,-5.9454,-5.9459,-5.9663,-5.9667,-5.9671,-5.9654,-5.9649,-5.9644,-5.9639,-5.9875,-5.9889,-5.9904,-6.0097,0,0,-5.9948,-5.9954,0,0,0,0,0,0,0,0,-5.9169,-5.9198,-5.9447,-5.9452,-5.9458,-5.9624,-5.9592,-5.9814,-5.9655,-5.958,-5.9642,-5.9636,-5.98,-5.9821,-5.9876,-6.0109,-6.0119,-5.9949,-5.9958,-5.9964,-5.9968,0,0,0,0,0,0,0,-5.9154,-5.9188,-5.9522,-5.9451,-5.9458,-5.9454,-5.9479,-5.9634,-5.9717,-5.9586,-5.9585,-5.9613,-5.9802,-5.9862,-5.9882,-6.0123,-5.9949,-5.9962,-5.997,-5.9976,-6.0529,-6.0535,0,0,0,0,0,0,-5.9133,-5.9176,-5.9514,-5.9529,-5.9298,-5.9467,-5.9494,-5.9576,-5.9715,-5.9731,-5.9618,-5.9612,-5.984,-5.9865,-5.989,-6.0128,-5.9964,-5.9978,-5.9986,-6.0523,-6.053,-6.0537,0,0,0,0,0,0,-5.9124,-5.9164,-5.9505,-5.9352,-5.9395,-5.948,-5.9572,-5.9583,-5.9643,-5.9739,-5.9753,-5.9664,-5.9837,-5.987,-6.0047,-6.0136,-5.9984,-5.9997,-6.0516,-6.0525,-6.0533,-6.0605,0,0,0,0,0,0,-5.911,-5.916,-5.9234,-5.9354,-5.9404,-5.9657,-5.9577,-5.9591,-5.9668,-5.9663,-5.9786,-5.9801,-5.9835,-6.0025,-6.0061,-6.0154,-6.0008,-6.0508,-6.052,-6.0531,-6.0595,-6.0615,-6.0633,0,0,0,0,0,-5.9094,-5.9244,-5.9238,-5.9279,-5.9498,-5.9663,-5.9691,-5.9727,-5.9675,-5.9751,-5.9813,-5.9797,-6.0121,-6.0044,-6.0084,-6.0182,-6.0503,-6.0517,-6.053,-6.0587,-6.0611,-6.0632,0,0,0,0,0,0,-5.9132,-5.926,-5.9255,-5.9449,-5.9545,-5.9659,-5.9756,-5.9752,-5.9865,-5.9855,-5.9895,-5.9924,-6.0102,-6.0159,-6.0071,-6.0378,-6.0305,-6.0327,-6.0334,-6.0359,-6.0377,-6.036,-6.002,0,0,0,0,0,-5.9164,-5.9286,-5.9392,-5.9552,-5.9601,-5.967,-5.9743,-5.9763,-5.9865,-5.9905,-5.998,-6.0079,-6.0203,-6.0284,-6.0403,-6.0603,-6.0631,-6.069,-6.0709,-6.0724,-6.0743,-6.0856,-6.0884,-6.0581,-6.0581,-6.0581,0,0,-5.9229,-5.9314,-5.9389,-5.9562,-5.9639,-5.9767,-5.9705,-5.9841,-5.9936,-5.9926,-6.0098,-6.0157,-6.027,-6.046,-6.0547,-6.0513,-6.0833,-6.0741,-6.0753,-6.0764,-6.0873,-6.0901,-6.0927,-6.059,-6.0589,-6.0587,0,0,-5.9413,-5.9489,-5.9633,-5.9712,-5.983,-5.9875,-5.9909,-6.0026,-6.0064,-6.0238,-6.0234,-6.0347,-6.056,-6.0641,-6.0711,-6.0929,-6.092,-6.0966,-6.1065,-6.1175,-6.1198,-6.122,-6.13,-6.1328,-6.0985,-6.0985,-6.0985,0,-5.948,-5.9671,-5.9707,-5.9846,-5.9923,-5.992,-6.0067,-6.0141,-6.0292,-6.0346,-6.0305,-6.0574,-6.0649,-6.086,-6.0914,-6.0969,-6.1011,-6.0953,-6.1192,-6.1214,-6.1235,-6.1311,-6.1341,-6.099,-6.099,-6.0989,-6.0989,0,-5.9748,-5.9881,-5.9982,-6.0129,-6.0218,-6.0359,-6.0418,-6.0503,-6.0516,-6.0566,-6.0745,-6.0836,-6.0975,-6.1026,-6.1039,-6.1239,-6.1215,-6.1183,-6.111,-6.1268,-6.1341,-6.137,-6.0997,-6.0996,-6.0994,-6.0993,0,0,-5.9962,-6.0129,-6.0166,-6.0234,-6.0364,-6.0468,-6.061,-6.0747,-6.082,-6.0925,-6.1046,-6.1227,-6.1199,-6.1278,-6.1301,-6.1396,-6.1566,-6.1353,-6.1357,-6.1391,-6.1795,-6.182,-6.1853,-6.1561,-6.1566,-6.1571,-6.1787,0,-6.0161,-6.0414,-6.0452,-6.0675,-6.0799,-6.08,-6.0924,-6.1018,-6.1069,-6.1182,-6.1238,-6.1367,-6.1319,-6.1367,-6.1462,-6.1525,-6.1648,-6.151,-6.1675,-6.1681,-6.1648,-6.1891,-6.1916,-6.2115,-6.1815,-6.182,-6.1823,0,-6.0427,-6.054,-6.0776,-6.0892,-6.0946,-6.1057,-6.1187,-6.1294,-6.1402,-6.1432,-6.1522,-6.1533,-6.1682,-6.1603,-6.1809,-6.1715,-6.1785,-6.1826,-6.1835,-6.1853,-6.1762,-6.1917,-6.218,-6.221,-6.1868,-6.1864,-6.1861,0,-6.0563,-6.0774,-6.0943,-6.1,-6.1139,-6.1218,-6.128,-6.1382,-6.1462,-6.1576,-6.1629,-6.1757,-6.1829,-6.1928,-6.1975,-6.1912,-6.218,-6.2103,-6.221,-6.221,-6.2267,-6.2263,-6.2547,-6.231,-6.2309,-6.2309,-6.2308,0,-6.0782,-6.0927,-6.1006,-6.111,-6.1272,-6.1315,-6.1475,-6.1534,-6.1626,-6.1742,-6.175,-6.1859,-6.1913,-6.2031,-6.2068,-6.2235,-6.2266,-6.2296,-6.2305,-6.2297,-6.2293,-6.2344,-6.2332,-6.2317,-6.2315,-6.2313,-6.2312,0,-6.0961,-6.1019,-6.1204,-6.1321,-6.1354,-6.1469,-6.157,-6.1672,-6.1722,-6.187,-6.1907,-6.1987,-6.2126,-6.2183,-6.2352,-6.2378,-6.257,-6.2567,-6.2534,-6.2537,-6.2642,-6.2632,-6.2969,-6.3017,-6.2747,-6.2749,-6.2751,0,-6.1097,-6.1209,-6.1339,-6.1418,-6.1483,-6.1609,-6.1692,-6.1738,-6.1824,-6.1957,-6.2043,-6.2182,-6.2296,-6.2519,-6.2592,-6.2723,-6.2724,-6.2834,-6.2744,-6.2733,-6.2729,-6.2722,-6.2735,-6.285,-6.2853,-6.2855,-6.2857,0,-6.1335,-6.1359,-6.1478,-6.1609,-6.1707,-6.1812,-6.1914,-6.1978,-6.2041,-6.2137,-6.228,-6.2369,-6.2544,-6.2683,-6.2818,-6.2882,-6.2881,-6.2885,-6.2917,-6.291,-6.2888,-6.2904,-6.2581,-6.2877,-6.2875,-6.2873,-6.2872,-6.2871,-6.1498,-6.1599,-6.1706,-6.184,-6.1922,-6.2017,-6.212,-6.2184,-6.2304,-6.245,-6.2471,-6.2624,-6.2731,-6.2913,-6.2983,-6.3105,-6.3076,-6.3122,-6.3134,-6.3145,-6.3154,-6.2867,-6.3129,-6.3128,-6.3128,-6.3128,-6.3127,0,-6.1738,-6.1808,-6.193,-6.2073,-6.2179,-6.2169,-6.2282,-6.2371,-6.2506,-6.2606,-6.2718,-6.2884,-6.3019,-6.3104,-6.3241,-6.3322,-6.3325,-6.3357,-6.3352,-6.3367,-6.317,-6.3129,-6.3352,-6.3352,-6.3352,-6.3352,-6.3352,-6.3352,-6.1875,-6.2045,-6.2082,-6.2293,-6.2362,-6.2513,-6.2579,-6.2668,-6.2748,-6.2933,-6.3046,-6.3101,-6.3196,-6.3339,-6.3464,-6.3485,-6.3536,-6.357,-6.359,-6.3404,-6.3381,-6.3359,-6.3321,-6.358,-6.358,-6.3778,-6.3779,-6.3781]}]]